Fort Eustis, VA

9:35 AM EDT on March 29, 2017 (GMT -0400)
Felker Army Air Field

Weather History for KFAF - November, 2012

Change the Weather History Date:

Thursday, November 1, 2012

  Actual Average Record
Temperature  
Mean Temperature 50 °F -  
Max Temperature 56 °F 64 °F 77 °F (1999)
Min Temperature 43 °F 46 °F 39 °F (2002)
Degree Days  
Heating Degree Days 16    
Moisture  
Dew Point 39 °F    
Average Humidity 67    
Maximum Humidity 81    
Minimum Humidity 52    
Precipitation  
Precipitation 0.00 in - - ()
Sea Level Pressure  
Sea Level Pressure 29.72 in    
Wind  
Wind Speed 5 mph (WNW)    
Max Wind Speed 10 mph    
Max Gust Speed -    
Visibility 10 miles    
Events      
Averages and records for this station are not official NWS values.
T = Trace of Precipitation, MM = Missing Value Source: NWS Daily Summary

Daily Weather History Graph

Daily Weather History Graph

Search for Another Location

Airport or City:

Trip Planner

Search our weather history database for the weather conditions in past years. The results will help you decide how hot, cold, wet, or windy it might be!

Date:

Astronomy

Nov. 01, 2012 Rise Set
Actual Time 7:31 AM EDT 6:08 PM EDT
Civil Twilight 7:04 AM EDT 6:35 PM EDT
Nautical Twilight 6:33 AM EDT 7:05 PM EDT
Astronomical Twilight 6:03 AM EDT 7:36 PM EDT
Moon 8:06 PM EDT (11/1) 9:59 AM EDT (11/1)
Length of Visible Light 11h 31m
Length of Day
10h 37m
Waning Gibbous, 93% of the Moon is Illuminated
Nov 1
Waning Gibbous
Nov 6
Last Quarter
Nov 13
New
Nov 20
First Quarter
Nov 28
Full

Hourly Weather History & Observations

Time (EDT) Temp. Windchill Dew Point Humidity Pressure Visibility Wind Dir Wind Speed Gust Speed Precip Events Conditions
12:55 AM 45.9 °F 41.7 °F 37.8 °F 73% 29.70 in 10.0 mi West 8.1 mph - N/A   Overcast
1:55 AM 45.1 °F 43.7 °F 37.8 °F 75% 29.71 in 10.0 mi WNW 3.5 mph - N/A   Overcast
2:55 AM 44.8 °F 43.3 °F 38.1 °F 77% 29.71 in 10.0 mi West 3.5 mph - N/A   Overcast
3:55 AM 44.6 °F - 37.9 °F 77% 29.70 in 10.0 mi Calm Calm - N/A   Overcast
4:55 AM 44.6 °F - 37.9 °F 77% 29.71 in 10.0 mi Calm Calm - N/A   Overcast
5:55 AM 45.0 °F - 38.1 °F 77% 29.71 in 10.0 mi Calm Calm - N/A   Overcast
6:55 AM 45.5 °F - 38.1 °F 75% 29.71 in 10.0 mi Calm Calm - N/A   Partly Cloudy
7:55 AM 43.9 °F 40.5 °F 38.3 °F 81% 29.72 in 10.0 mi West 5.8 mph - N/A   Partly Cloudy
8:55 AM 46.2 °F 45.0 °F 39.2 °F 76% 29.74 in 10.0 mi Variable 3.5 mph - N/A   Mostly Cloudy
9:55 AM 47.8 °F - 39.7 °F 74% 29.74 in 10.0 mi Variable 4.6 mph - N/A   Scattered Clouds
10:55 AM 49.3 °F - 39.2 °F 68% 29.75 in 10.0 mi West 3.5 mph - N/A   Overcast
11:55 AM 52.7 °F - 39.0 °F 60% 29.74 in 10.0 mi Variable 6.9 mph - N/A   Partly Cloudy
12:55 PM 55.2 °F - 39.6 °F 56% 29.72 in 10.0 mi NNW 5.8 mph - N/A   Partly Cloudy
1:55 PM 54.1 °F - 38.7 °F 56% 29.69 in 10.0 mi NW 6.9 mph - N/A   Partly Cloudy
2:55 PM 56.3 °F - 38.7 °F 52% 29.68 in 10.0 mi WNW 6.9 mph - N/A   Overcast
3:55 PM 55.0 °F - 39.2 °F 55% 29.68 in 10.0 mi WNW 5.8 mph - N/A   Overcast
4:55 PM 54.5 °F - 38.7 °F 55% 29.69 in 10.0 mi West 6.9 mph - N/A   Overcast
5:55 PM 53.8 °F - 39.4 °F 58% 29.71 in 10.0 mi West 5.8 mph - N/A   Overcast
6:55 PM 53.1 °F - 39.6 °F 60% 29.73 in 10.0 mi West 6.9 mph - N/A   Overcast
7:55 PM 51.4 °F - 38.3 °F 61% 29.75 in 10.0 mi West 6.9 mph - N/A   Overcast
8:55 PM 50.4 °F - 38.5 °F 64% 29.75 in 10.0 mi West 6.9 mph - N/A   Overcast
9:55 PM 50.7 °F - 37.9 °F 62% 29.77 in 10.0 mi West 5.8 mph - N/A   Overcast
10:55 PM 49.6 °F - 38.5 °F 65% 29.78 in 10.0 mi WNW 9.2 mph - N/A   Overcast
11:55 PM 48.7 °F - 38.7 °F 68% 29.78 in 10.0 mi WNW 10.4 mph - N/A   Overcast